<?xml version="1.0" encoding="UTF-8"?>
<gpx
version="1.1"
creator="Kashmir3D 9.350 - http://www.kashmir3d.com"
xmlns:xsi="http://www.w3.org/2001/XMLSchema-instance"
xmlns="http://www.topografix.com/GPX/1/1"
xmlns:kashmir3d="http://www.kashmir3d.com/namespace/kashmir3d"
xsi:schemaLocation="http://www.topografix.com/GPX/1/1 http://www.topografix.com/GPX/1/1/gpx.xsd
	http://www.kashmir3d.com/namespace/kashmir3d http://www.kashmir3d.com/namespace/kashmir3d.xsd">
<trk>
 <name>GINNOMINE.KML(銀の峰)</name>
 <number>1</number>
 <extensions>
 <kashmir3d:line_color>0000ff</kashmir3d:line_color>
 <kashmir3d:line_size>3</kashmir3d:line_size>
 <kashmir3d:line_style>1</kashmir3d:line_style>
 <kashmir3d:icon>901001</kashmir3d:icon>
 </extensions>
<trkseg>
<trkpt lat="34.325743" lon="135.269920">
 <ele>75</ele>
 <time>2020-03-24T16:55:29Z</time>
</trkpt>
<trkpt lat="34.325700" lon="135.270006">
 <ele>76</ele>
 <time>2020-03-24T16:55:29Z</time>
</trkpt>
<trkpt lat="34.325030" lon="135.269576">
 <ele>76</ele>
 <time>2020-03-24T16:55:30Z</time>
</trkpt>
<trkpt lat="34.324842" lon="135.269469">
 <ele>76.8</ele>
 <time>2020-03-24T16:55:30Z</time>
</trkpt>
<trkpt lat="34.324687" lon="135.269405">
 <ele>75.7</ele>
 <time>2020-03-24T16:55:30Z</time>
</trkpt>
<trkpt lat="34.324507" lon="135.269426">
 <ele>75.8</ele>
 <time>2020-03-24T16:55:30Z</time>
</trkpt>
<trkpt lat="34.324421" lon="135.269437">
 <ele>75.7</ele>
 <time>2020-03-24T16:55:30Z</time>
</trkpt>
<trkpt lat="34.324344" lon="135.269437">
 <ele>75.4</ele>
 <time>2020-03-24T16:55:30Z</time>
</trkpt>
<trkpt lat="34.324241" lon="135.269265">
 <ele>69.7</ele>
 <time>2020-03-24T16:55:30Z</time>
</trkpt>
<trkpt lat="34.324163" lon="135.269137">
 <ele>73.1</ele>
 <time>2020-03-24T16:55:30Z</time>
</trkpt>
<trkpt lat="34.324078" lon="135.268986">
 <ele>75.2</ele>
 <time>2020-03-24T16:55:30Z</time>
</trkpt>
<trkpt lat="34.324078" lon="135.268750">
 <ele>76.6</ele>
 <time>2020-03-24T16:55:30Z</time>
</trkpt>
<trkpt lat="34.324069" lon="135.268514">
 <ele>78.7</ele>
 <time>2020-03-24T16:55:31Z</time>
</trkpt>
<trkpt lat="34.324086" lon="135.268300">
 <ele>80.2</ele>
 <time>2020-03-24T16:55:31Z</time>
</trkpt>
<trkpt lat="34.324086" lon="135.268117">
 <ele>81.4</ele>
 <time>2020-03-24T16:55:31Z</time>
</trkpt>
<trkpt lat="34.324052" lon="135.268021">
 <ele>82.4</ele>
 <time>2020-03-24T16:55:31Z</time>
</trkpt>
<trkpt lat="34.323983" lon="135.268021">
 <ele>82.7</ele>
 <time>2020-03-24T16:55:31Z</time>
</trkpt>
<trkpt lat="34.323932" lon="135.267956">
 <ele>83.3</ele>
 <time>2020-03-24T16:55:31Z</time>
</trkpt>
<trkpt lat="34.323880" lon="135.267892">
 <ele>83.5</ele>
 <time>2020-03-24T16:55:31Z</time>
</trkpt>
<trkpt lat="34.323769" lon="135.267871">
 <ele>84.7</ele>
 <time>2020-03-24T16:55:31Z</time>
</trkpt>
<trkpt lat="34.323640" lon="135.267881">
 <ele>86</ele>
 <time>2020-03-24T16:55:31Z</time>
</trkpt>
<trkpt lat="34.323520" lon="135.267913">
 <ele>87.8</ele>
 <time>2020-03-24T16:55:32Z</time>
</trkpt>
<trkpt lat="34.323382" lon="135.267956">
 <ele>87.5</ele>
 <time>2020-03-24T16:55:32Z</time>
</trkpt>
<trkpt lat="34.323219" lon="135.268010">
 <ele>87</ele>
 <time>2020-03-24T16:55:32Z</time>
</trkpt>
<trkpt lat="34.323082" lon="135.268074">
 <ele>87.3</ele>
 <time>2020-03-24T16:55:32Z</time>
</trkpt>
<trkpt lat="34.322979" lon="135.268139">
 <ele>87</ele>
 <time>2020-03-24T16:55:32Z</time>
</trkpt>
<trkpt lat="34.322945" lon="135.268139">
 <ele>87.1</ele>
 <time>2020-03-24T16:55:32Z</time>
</trkpt>
<trkpt lat="34.322936" lon="135.267999">
 <ele>88.4</ele>
 <time>2020-03-24T16:55:32Z</time>
</trkpt>
<trkpt lat="34.322876" lon="135.267849">
 <ele>89.9</ele>
 <time>2020-03-24T16:55:32Z</time>
</trkpt>
<trkpt lat="34.322739" lon="135.267602">
 <ele>91.3</ele>
 <time>2020-03-24T16:55:32Z</time>
</trkpt>
<trkpt lat="34.322670" lon="135.267463">
 <ele>93.9</ele>
 <time>2020-03-24T16:55:32Z</time>
</trkpt>
<trkpt lat="34.322610" lon="135.267431">
 <ele>94</ele>
 <time>2020-03-24T16:55:33Z</time>
</trkpt>
<trkpt lat="34.322516" lon="135.267399">
 <ele>95.9</ele>
 <time>2020-03-24T16:55:33Z</time>
</trkpt>
<trkpt lat="34.322395" lon="135.267431">
 <ele>96.7</ele>
 <time>2020-03-24T16:55:33Z</time>
</trkpt>
<trkpt lat="34.322267" lon="135.267474">
 <ele>98.2</ele>
 <time>2020-03-24T16:55:33Z</time>
</trkpt>
<trkpt lat="34.322172" lon="135.267517">
 <ele>99.2</ele>
 <time>2020-03-24T16:55:33Z</time>
</trkpt>
<trkpt lat="34.322104" lon="135.267506">
 <ele>99.6</ele>
 <time>2020-03-24T16:55:33Z</time>
</trkpt>
<trkpt lat="34.321777" lon="135.267173">
 <ele>102.4</ele>
 <time>2020-03-24T16:55:33Z</time>
</trkpt>
<trkpt lat="34.321743" lon="135.267120">
 <ele>102.6</ele>
 <time>2020-03-24T16:55:33Z</time>
</trkpt>
<trkpt lat="34.321674" lon="135.267120">
 <ele>103</ele>
 <time>2020-03-24T16:55:33Z</time>
</trkpt>
<trkpt lat="34.321614" lon="135.267184">
 <ele>105</ele>
 <time>2020-03-24T16:55:33Z</time>
</trkpt>
<trkpt lat="34.321451" lon="135.267055">
 <ele>110.3</ele>
 <time>2020-03-24T16:55:34Z</time>
</trkpt>
<trkpt lat="34.321297" lon="135.266884">
 <ele>111.7</ele>
 <time>2020-03-24T16:55:34Z</time>
</trkpt>
<trkpt lat="34.321202" lon="135.266819">
 <ele>116.5</ele>
 <time>2020-03-24T16:55:34Z</time>
</trkpt>
<trkpt lat="34.321116" lon="135.266755">
 <ele>116.5</ele>
 <time>2020-03-24T16:55:34Z</time>
</trkpt>
<trkpt lat="34.321065" lon="135.266680">
 <ele>121.7</ele>
 <time>2020-03-24T16:55:34Z</time>
</trkpt>
<trkpt lat="34.320971" lon="135.266615">
 <ele>125.1</ele>
 <time>2020-03-24T16:55:34Z</time>
</trkpt>
<trkpt lat="34.320928" lon="135.266669">
 <ele>134.3</ele>
 <time>2020-03-24T16:55:34Z</time>
</trkpt>
<trkpt lat="34.320953" lon="135.266798">
 <ele>134.9</ele>
 <time>2020-03-24T16:55:34Z</time>
</trkpt>
<trkpt lat="34.321022" lon="135.266926">
 <ele>134.5</ele>
 <time>2020-03-24T16:55:34Z</time>
</trkpt>
<trkpt lat="34.321056" lon="135.267034">
 <ele>139.4</ele>
 <time>2020-03-24T16:55:35Z</time>
</trkpt>
<trkpt lat="34.321116" lon="135.267098">
 <ele>135.5</ele>
 <time>2020-03-24T16:55:35Z</time>
</trkpt>
<trkpt lat="34.321151" lon="135.267195">
 <ele>140.1</ele>
 <time>2020-03-24T16:55:35Z</time>
</trkpt>
<trkpt lat="34.321151" lon="135.267259">
 <ele>142.1</ele>
 <time>2020-03-24T16:55:35Z</time>
</trkpt>
<trkpt lat="34.321082" lon="135.267323">
 <ele>145.7</ele>
 <time>2020-03-24T16:55:35Z</time>
</trkpt>
<trkpt lat="34.320979" lon="135.267366">
 <ele>149.2</ele>
 <time>2020-03-24T16:55:35Z</time>
</trkpt>
<trkpt lat="34.320910" lon="135.267399">
 <ele>152.7</ele>
 <time>2020-03-24T16:55:35Z</time>
</trkpt>
<trkpt lat="34.320842" lon="135.267377">
 <ele>155.3</ele>
 <time>2020-03-24T16:55:35Z</time>
</trkpt>
<trkpt lat="34.320799" lon="135.267313">
 <ele>156.8</ele>
 <time>2020-03-24T16:55:35Z</time>
</trkpt>
<trkpt lat="34.320722" lon="135.267173">
 <ele>161.1</ele>
 <time>2020-03-24T16:55:35Z</time>
</trkpt>
<trkpt lat="34.320567" lon="135.266884">
 <ele>174.6</ele>
 <time>2020-03-24T16:55:36Z</time>
</trkpt>
<trkpt lat="34.320456" lon="135.266755">
 <ele>179.9</ele>
 <time>2020-03-24T16:55:36Z</time>
</trkpt>
<trkpt lat="34.320387" lon="135.266680">
 <ele>184.3</ele>
 <time>2020-03-24T16:55:36Z</time>
</trkpt>
<trkpt lat="34.320258" lon="135.266594">
 <ele>187.2</ele>
 <time>2020-03-24T16:55:36Z</time>
</trkpt>
<trkpt lat="34.320164" lon="135.266529">
 <ele>186.4</ele>
 <time>2020-03-24T16:55:36Z</time>
</trkpt>
<trkpt lat="34.320104" lon="135.266476">
 <ele>190.5</ele>
 <time>2020-03-24T16:55:36Z</time>
</trkpt>
<trkpt lat="34.319992" lon="135.266379">
 <ele>197.5</ele>
 <time>2020-03-24T16:55:36Z</time>
</trkpt>
<trkpt lat="34.319898" lon="135.266336">
 <ele>203.3</ele>
 <time>2020-03-24T16:55:36Z</time>
</trkpt>
<trkpt lat="34.319820" lon="135.266304">
 <ele>204.7</ele>
 <time>2020-03-24T16:55:36Z</time>
</trkpt>
<trkpt lat="34.319769" lon="135.266240">
 <ele>203.1</ele>
 <time>2020-03-24T16:55:37Z</time>
</trkpt>
<trkpt lat="34.319700" lon="135.266208">
 <ele>207.7</ele>
 <time>2020-03-24T16:55:37Z</time>
</trkpt>
<trkpt lat="34.319614" lon="135.266133">
 <ele>213.4</ele>
 <time>2020-03-24T16:55:37Z</time>
</trkpt>
<trkpt lat="34.319486" lon="135.266068">
 <ele>215</ele>
 <time>2020-03-24T16:55:37Z</time>
</trkpt>
<trkpt lat="34.319383" lon="135.266004">
 <ele>220.3</ele>
 <time>2020-03-24T16:55:37Z</time>
</trkpt>
<trkpt lat="34.319220" lon="135.265939">
 <ele>228</ele>
 <time>2020-03-24T16:55:37Z</time>
</trkpt>
<trkpt lat="34.319099" lon="135.265896">
 <ele>231.3</ele>
 <time>2020-03-24T16:55:37Z</time>
</trkpt>
<trkpt lat="34.318996" lon="135.265811">
 <ele>231.1</ele>
 <time>2020-03-24T16:55:37Z</time>
</trkpt>
<trkpt lat="34.318893" lon="135.265746">
 <ele>235.9</ele>
 <time>2020-03-24T16:55:37Z</time>
</trkpt>
<trkpt lat="34.318851" lon="135.265618">
 <ele>240</ele>
 <time>2020-03-24T16:55:37Z</time>
</trkpt>
<trkpt lat="34.318773" lon="135.265478">
 <ele>245.1</ele>
 <time>2020-03-24T16:55:38Z</time>
</trkpt>
<trkpt lat="34.318773" lon="135.265360">
 <ele>242.6</ele>
 <time>2020-03-24T16:55:38Z</time>
</trkpt>
<trkpt lat="34.318730" lon="135.265274">
 <ele>249.3</ele>
 <time>2020-03-24T16:55:38Z</time>
</trkpt>
<trkpt lat="34.318713" lon="135.265135">
 <ele>250.5</ele>
 <time>2020-03-24T16:55:38Z</time>
</trkpt>
<trkpt lat="34.318713" lon="135.264995">
 <ele>254.1</ele>
 <time>2020-03-24T16:55:38Z</time>
</trkpt>
<trkpt lat="34.318696" lon="135.264845">
 <ele>256.4</ele>
 <time>2020-03-24T16:55:38Z</time>
</trkpt>
<trkpt lat="34.318705" lon="135.264673">
 <ele>259.5</ele>
 <time>2020-03-24T16:55:38Z</time>
</trkpt>
<trkpt lat="34.318748" lon="135.264512">
 <ele>261.1</ele>
 <time>2020-03-24T16:55:38Z</time>
</trkpt>
<trkpt lat="34.318756" lon="135.264373">
 <ele>263.2</ele>
 <time>2020-03-24T16:55:38Z</time>
</trkpt>
<trkpt lat="34.318730" lon="135.264223">
 <ele>264.6</ele>
 <time>2020-03-24T16:55:39Z</time>
</trkpt>
<trkpt lat="34.318713" lon="135.264083">
 <ele>268.5</ele>
 <time>2020-03-24T16:55:39Z</time>
</trkpt>
<trkpt lat="34.318722" lon="135.263965">
 <ele>272.7</ele>
 <time>2020-03-24T16:55:39Z</time>
</trkpt>
<trkpt lat="34.318713" lon="135.263837">
 <ele>274.9</ele>
 <time>2020-03-24T16:55:39Z</time>
</trkpt>
<trkpt lat="34.318739" lon="135.263719">
 <ele>277.8</ele>
 <time>2020-03-24T16:55:39Z</time>
</trkpt>
<trkpt lat="34.318739" lon="135.263633">
 <ele>278.6</ele>
 <time>2020-03-24T16:55:39Z</time>
</trkpt>
<trkpt lat="34.318756" lon="135.263579">
 <ele>279.4</ele>
 <time>2020-03-24T16:55:39Z</time>
</trkpt>
<trkpt lat="34.318765" lon="135.263461">
 <ele>280</ele>
 <time>2020-03-24T16:55:39Z</time>
</trkpt>
<trkpt lat="34.318765" lon="135.263332">
 <ele>282.8</ele>
 <time>2020-03-24T16:55:39Z</time>
</trkpt>
<trkpt lat="34.318765" lon="135.263139">
 <ele>288</ele>
 <time>2020-03-24T16:55:40Z</time>
</trkpt>
<trkpt lat="34.318782" lon="135.263032">
 <ele>290.1</ele>
 <time>2020-03-24T16:55:40Z</time>
</trkpt>
<trkpt lat="34.318808" lon="135.262914">
 <ele>293.3</ele>
 <time>2020-03-24T16:55:40Z</time>
</trkpt>
<trkpt lat="34.318851" lon="135.262796">
 <ele>295.6</ele>
 <time>2020-03-24T16:55:40Z</time>
</trkpt>
<trkpt lat="34.318851" lon="135.262689">
 <ele>297.1</ele>
 <time>2020-03-24T16:55:40Z</time>
</trkpt>
<trkpt lat="34.318799" lon="135.262592">
 <ele>298.5</ele>
 <time>2020-03-24T16:55:40Z</time>
</trkpt>
<trkpt lat="34.318756" lon="135.262485">
 <ele>298.6</ele>
 <time>2020-03-24T16:55:40Z</time>
</trkpt>
<trkpt lat="34.318687" lon="135.262410">
 <ele>299.1</ele>
 <time>2020-03-24T16:55:40Z</time>
</trkpt>
<trkpt lat="34.318584" lon="135.262334">
 <ele>302</ele>
 <time>2020-03-24T16:55:40Z</time>
</trkpt>
<trkpt lat="34.318464" lon="135.262216">
 <ele>306</ele>
 <time>2020-03-24T16:55:40Z</time>
</trkpt>
<trkpt lat="34.318413" lon="135.262152">
 <ele>309.3</ele>
 <time>2020-03-24T16:55:41Z</time>
</trkpt>
<trkpt lat="34.318404" lon="135.262066">
 <ele>313.2</ele>
 <time>2020-03-24T16:55:41Z</time>
</trkpt>
<trkpt lat="34.318439" lon="135.261927">
 <ele>317.8</ele>
 <time>2020-03-24T16:55:41Z</time>
</trkpt>
<trkpt lat="34.318499" lon="135.261820">
 <ele>319</ele>
 <time>2020-03-24T16:55:41Z</time>
</trkpt>
<trkpt lat="34.318567" lon="135.261734">
 <ele>318.1</ele>
 <time>2020-03-24T16:55:41Z</time>
</trkpt>
<trkpt lat="34.318687" lon="135.261637">
 <ele>316.8</ele>
 <time>2020-03-24T16:55:41Z</time>
</trkpt>
<trkpt lat="34.318756" lon="135.261637">
 <ele>315.2</ele>
 <time>2020-03-24T16:55:41Z</time>
</trkpt>
<trkpt lat="34.318687" lon="135.261637">
 <ele>316.8</ele>
 <time>2020-03-24T16:55:41Z</time>
</trkpt>
<trkpt lat="34.318567" lon="135.261734">
 <ele>318.1</ele>
 <time>2020-03-24T16:55:41Z</time>
</trkpt>
<trkpt lat="34.318499" lon="135.261820">
 <ele>319</ele>
 <time>2020-03-24T16:55:41Z</time>
</trkpt>
<trkpt lat="34.318439" lon="135.261927">
 <ele>317.8</ele>
 <time>2020-03-24T16:55:42Z</time>
</trkpt>
<trkpt lat="34.318404" lon="135.262066">
 <ele>313.2</ele>
 <time>2020-03-24T16:55:42Z</time>
</trkpt>
<trkpt lat="34.318413" lon="135.262152">
 <ele>309.3</ele>
 <time>2020-03-24T16:55:42Z</time>
</trkpt>
<trkpt lat="34.318464" lon="135.262216">
 <ele>306</ele>
 <time>2020-03-24T16:55:42Z</time>
</trkpt>
<trkpt lat="34.318584" lon="135.262334">
 <ele>302</ele>
 <time>2020-03-24T16:55:42Z</time>
</trkpt>
<trkpt lat="34.318687" lon="135.262410">
 <ele>299.1</ele>
 <time>2020-03-24T16:55:42Z</time>
</trkpt>
<trkpt lat="34.318756" lon="135.262485">
 <ele>298.6</ele>
 <time>2020-03-24T16:55:42Z</time>
</trkpt>
<trkpt lat="34.318799" lon="135.262592">
 <ele>298.5</ele>
 <time>2020-03-24T16:55:42Z</time>
</trkpt>
<trkpt lat="34.318851" lon="135.262689">
 <ele>297.1</ele>
 <time>2020-03-24T16:55:42Z</time>
</trkpt>
<trkpt lat="34.318851" lon="135.262796">
 <ele>295.6</ele>
 <time>2020-03-24T16:55:43Z</time>
</trkpt>
<trkpt lat="34.318808" lon="135.262914">
 <ele>293.3</ele>
 <time>2020-03-24T16:55:43Z</time>
</trkpt>
<trkpt lat="34.318782" lon="135.263032">
 <ele>290.1</ele>
 <time>2020-03-24T16:55:43Z</time>
</trkpt>
<trkpt lat="34.318765" lon="135.263139">
 <ele>288</ele>
 <time>2020-03-24T16:55:43Z</time>
</trkpt>
<trkpt lat="34.318765" lon="135.263332">
 <ele>282.8</ele>
 <time>2020-03-24T16:55:43Z</time>
</trkpt>
<trkpt lat="34.318765" lon="135.263461">
 <ele>280</ele>
 <time>2020-03-24T16:55:43Z</time>
</trkpt>
<trkpt lat="34.318756" lon="135.263579">
 <ele>279.4</ele>
 <time>2020-03-24T16:55:43Z</time>
</trkpt>
<trkpt lat="34.318739" lon="135.263633">
 <ele>278.6</ele>
 <time>2020-03-24T16:55:43Z</time>
</trkpt>
<trkpt lat="34.318739" lon="135.263719">
 <ele>277.8</ele>
 <time>2020-03-24T16:55:43Z</time>
</trkpt>
<trkpt lat="34.318713" lon="135.263837">
 <ele>274.9</ele>
 <time>2020-03-24T16:55:43Z</time>
</trkpt>
<trkpt lat="34.318722" lon="135.263965">
 <ele>272.7</ele>
 <time>2020-03-24T16:55:44Z</time>
</trkpt>
<trkpt lat="34.318713" lon="135.264083">
 <ele>268.5</ele>
 <time>2020-03-24T16:55:44Z</time>
</trkpt>
<trkpt lat="34.318730" lon="135.264223">
 <ele>264.6</ele>
 <time>2020-03-24T16:55:44Z</time>
</trkpt>
<trkpt lat="34.318756" lon="135.264373">
 <ele>263.2</ele>
 <time>2020-03-24T16:55:44Z</time>
</trkpt>
<trkpt lat="34.318748" lon="135.264512">
 <ele>261.1</ele>
 <time>2020-03-24T16:55:44Z</time>
</trkpt>
<trkpt lat="34.318705" lon="135.264673">
 <ele>259.5</ele>
 <time>2020-03-24T16:55:44Z</time>
</trkpt>
<trkpt lat="34.318696" lon="135.264845">
 <ele>256.4</ele>
 <time>2020-03-24T16:55:44Z</time>
</trkpt>
<trkpt lat="34.318713" lon="135.264995">
 <ele>254.1</ele>
 <time>2020-03-24T16:55:44Z</time>
</trkpt>
<trkpt lat="34.318713" lon="135.265135">
 <ele>250.5</ele>
 <time>2020-03-24T16:55:44Z</time>
</trkpt>
<trkpt lat="34.318730" lon="135.265274">
 <ele>249.3</ele>
 <time>2020-03-24T16:55:45Z</time>
</trkpt>
<trkpt lat="34.318773" lon="135.265360">
 <ele>242.6</ele>
 <time>2020-03-24T16:55:45Z</time>
</trkpt>
<trkpt lat="34.318773" lon="135.265478">
 <ele>245.1</ele>
 <time>2020-03-24T16:55:45Z</time>
</trkpt>
<trkpt lat="34.318851" lon="135.265618">
 <ele>240</ele>
 <time>2020-03-24T16:55:45Z</time>
</trkpt>
<trkpt lat="34.318893" lon="135.265746">
 <ele>235.9</ele>
 <time>2020-03-24T16:55:45Z</time>
</trkpt>
<trkpt lat="34.318996" lon="135.265811">
 <ele>231.1</ele>
 <time>2020-03-24T16:55:45Z</time>
</trkpt>
<trkpt lat="34.319099" lon="135.265896">
 <ele>231.3</ele>
 <time>2020-03-24T16:55:45Z</time>
</trkpt>
<trkpt lat="34.319220" lon="135.265939">
 <ele>228</ele>
 <time>2020-03-24T16:55:45Z</time>
</trkpt>
<trkpt lat="34.319383" lon="135.266004">
 <ele>220.3</ele>
 <time>2020-03-24T16:55:45Z</time>
</trkpt>
<trkpt lat="34.319486" lon="135.266068">
 <ele>215</ele>
 <time>2020-03-24T16:55:45Z</time>
</trkpt>
<trkpt lat="34.319614" lon="135.266133">
 <ele>213.4</ele>
 <time>2020-03-24T16:55:46Z</time>
</trkpt>
<trkpt lat="34.319700" lon="135.266208">
 <ele>207.7</ele>
 <time>2020-03-24T16:55:46Z</time>
</trkpt>
<trkpt lat="34.319769" lon="135.266240">
 <ele>203.1</ele>
 <time>2020-03-24T16:55:46Z</time>
</trkpt>
<trkpt lat="34.319820" lon="135.266304">
 <ele>204.7</ele>
 <time>2020-03-24T16:55:46Z</time>
</trkpt>
<trkpt lat="34.319898" lon="135.266336">
 <ele>203.3</ele>
 <time>2020-03-24T16:55:46Z</time>
</trkpt>
<trkpt lat="34.319992" lon="135.266379">
 <ele>197.5</ele>
 <time>2020-03-24T16:55:46Z</time>
</trkpt>
<trkpt lat="34.320104" lon="135.266476">
 <ele>190.5</ele>
 <time>2020-03-24T16:55:46Z</time>
</trkpt>
<trkpt lat="34.320164" lon="135.266529">
 <ele>186.4</ele>
 <time>2020-03-24T16:55:46Z</time>
</trkpt>
<trkpt lat="34.320258" lon="135.266594">
 <ele>187.2</ele>
 <time>2020-03-24T16:55:46Z</time>
</trkpt>
<trkpt lat="34.320387" lon="135.266680">
 <ele>184.3</ele>
 <time>2020-03-24T16:55:46Z</time>
</trkpt>
<trkpt lat="34.320456" lon="135.266755">
 <ele>179.9</ele>
 <time>2020-03-24T16:55:47Z</time>
</trkpt>
<trkpt lat="34.320567" lon="135.266884">
 <ele>174.6</ele>
 <time>2020-03-24T16:55:47Z</time>
</trkpt>
<trkpt lat="34.320722" lon="135.267173">
 <ele>161.1</ele>
 <time>2020-03-24T16:55:47Z</time>
</trkpt>
<trkpt lat="34.320799" lon="135.267313">
 <ele>156.8</ele>
 <time>2020-03-24T16:55:47Z</time>
</trkpt>
<trkpt lat="34.320842" lon="135.267377">
 <ele>155.3</ele>
 <time>2020-03-24T16:55:47Z</time>
</trkpt>
<trkpt lat="34.320910" lon="135.267399">
 <ele>152.7</ele>
 <time>2020-03-24T16:55:47Z</time>
</trkpt>
<trkpt lat="34.320979" lon="135.267366">
 <ele>149.2</ele>
 <time>2020-03-24T16:55:47Z</time>
</trkpt>
<trkpt lat="34.321082" lon="135.267323">
 <ele>145.7</ele>
 <time>2020-03-24T16:55:47Z</time>
</trkpt>
<trkpt lat="34.321151" lon="135.267259">
 <ele>142.1</ele>
 <time>2020-03-24T16:55:47Z</time>
</trkpt>
<trkpt lat="34.321151" lon="135.267195">
 <ele>140.1</ele>
 <time>2020-03-24T16:55:48Z</time>
</trkpt>
<trkpt lat="34.321116" lon="135.267098">
 <ele>135.5</ele>
 <time>2020-03-24T16:55:48Z</time>
</trkpt>
<trkpt lat="34.321056" lon="135.267034">
 <ele>139.4</ele>
 <time>2020-03-24T16:55:48Z</time>
</trkpt>
<trkpt lat="34.321022" lon="135.266926">
 <ele>134.5</ele>
 <time>2020-03-24T16:55:48Z</time>
</trkpt>
<trkpt lat="34.320953" lon="135.266798">
 <ele>134.9</ele>
 <time>2020-03-24T16:55:48Z</time>
</trkpt>
<trkpt lat="34.320928" lon="135.266669">
 <ele>134.3</ele>
 <time>2020-03-24T16:55:48Z</time>
</trkpt>
<trkpt lat="34.320971" lon="135.266615">
 <ele>125.1</ele>
 <time>2020-03-24T16:55:48Z</time>
</trkpt>
<trkpt lat="34.321065" lon="135.266680">
 <ele>121.7</ele>
 <time>2020-03-24T16:55:48Z</time>
</trkpt>
<trkpt lat="34.321116" lon="135.266755">
 <ele>116.5</ele>
 <time>2020-03-24T16:55:48Z</time>
</trkpt>
<trkpt lat="34.321202" lon="135.266819">
 <ele>116.5</ele>
 <time>2020-03-24T16:55:49Z</time>
</trkpt>
<trkpt lat="34.321297" lon="135.266884">
 <ele>111.7</ele>
 <time>2020-03-24T16:55:49Z</time>
</trkpt>
<trkpt lat="34.321451" lon="135.267055">
 <ele>110.3</ele>
 <time>2020-03-24T16:55:49Z</time>
</trkpt>
<trkpt lat="34.321614" lon="135.267184">
 <ele>105</ele>
 <time>2020-03-24T16:55:49Z</time>
</trkpt>
<trkpt lat="34.321674" lon="135.267120">
 <ele>103</ele>
 <time>2020-03-24T16:55:49Z</time>
</trkpt>
<trkpt lat="34.321743" lon="135.267120">
 <ele>102.6</ele>
 <time>2020-03-24T16:55:49Z</time>
</trkpt>
<trkpt lat="34.321777" lon="135.267173">
 <ele>102.4</ele>
 <time>2020-03-24T16:55:49Z</time>
</trkpt>
<trkpt lat="34.322104" lon="135.267506">
 <ele>99.6</ele>
 <time>2020-03-24T16:55:49Z</time>
</trkpt>
<trkpt lat="34.322172" lon="135.267517">
 <ele>99.2</ele>
 <time>2020-03-24T16:55:49Z</time>
</trkpt>
<trkpt lat="34.322267" lon="135.267474">
 <ele>98.2</ele>
 <time>2020-03-24T16:55:49Z</time>
</trkpt>
<trkpt lat="34.322395" lon="135.267431">
 <ele>96.7</ele>
 <time>2020-03-24T16:55:50Z</time>
</trkpt>
<trkpt lat="34.322516" lon="135.267399">
 <ele>95.9</ele>
 <time>2020-03-24T16:55:50Z</time>
</trkpt>
<trkpt lat="34.322610" lon="135.267431">
 <ele>94</ele>
 <time>2020-03-24T16:55:50Z</time>
</trkpt>
<trkpt lat="34.322670" lon="135.267463">
 <ele>93.9</ele>
 <time>2020-03-24T16:55:50Z</time>
</trkpt>
<trkpt lat="34.322739" lon="135.267602">
 <ele>91.3</ele>
 <time>2020-03-24T16:55:50Z</time>
</trkpt>
<trkpt lat="34.322876" lon="135.267849">
 <ele>89.9</ele>
 <time>2020-03-24T16:55:50Z</time>
</trkpt>
<trkpt lat="34.322936" lon="135.267999">
 <ele>88.4</ele>
 <time>2020-03-24T16:55:50Z</time>
</trkpt>
<trkpt lat="34.322945" lon="135.268139">
 <ele>87.1</ele>
 <time>2020-03-24T16:55:50Z</time>
</trkpt>
<trkpt lat="34.322979" lon="135.268139">
 <ele>87</ele>
 <time>2020-03-24T16:55:50Z</time>
</trkpt>
<trkpt lat="34.323082" lon="135.268074">
 <ele>87.3</ele>
 <time>2020-03-24T16:55:50Z</time>
</trkpt>
<trkpt lat="34.323219" lon="135.268010">
 <ele>87</ele>
 <time>2020-03-24T16:55:51Z</time>
</trkpt>
<trkpt lat="34.323382" lon="135.267956">
 <ele>87.5</ele>
 <time>2020-03-24T16:55:51Z</time>
</trkpt>
<trkpt lat="34.323520" lon="135.267913">
 <ele>87.8</ele>
 <time>2020-03-24T16:55:51Z</time>
</trkpt>
<trkpt lat="34.323640" lon="135.267881">
 <ele>86</ele>
 <time>2020-03-24T16:55:51Z</time>
</trkpt>
<trkpt lat="34.323769" lon="135.267871">
 <ele>84.7</ele>
 <time>2020-03-24T16:55:51Z</time>
</trkpt>
<trkpt lat="34.323880" lon="135.267892">
 <ele>83.5</ele>
 <time>2020-03-24T16:55:51Z</time>
</trkpt>
<trkpt lat="34.323932" lon="135.267956">
 <ele>83.3</ele>
 <time>2020-03-24T16:55:51Z</time>
</trkpt>
<trkpt lat="34.323983" lon="135.268021">
 <ele>82.7</ele>
 <time>2020-03-24T16:55:51Z</time>
</trkpt>
<trkpt lat="34.324052" lon="135.268021">
 <ele>82.4</ele>
 <time>2020-03-24T16:55:51Z</time>
</trkpt>
<trkpt lat="34.324086" lon="135.268117">
 <ele>81.4</ele>
 <time>2020-03-24T16:55:52Z</time>
</trkpt>
<trkpt lat="34.324086" lon="135.268300">
 <ele>80.2</ele>
 <time>2020-03-24T16:55:52Z</time>
</trkpt>
<trkpt lat="34.324069" lon="135.268514">
 <ele>78.7</ele>
 <time>2020-03-24T16:55:52Z</time>
</trkpt>
<trkpt lat="34.324078" lon="135.268750">
 <ele>76.6</ele>
 <time>2020-03-24T16:55:52Z</time>
</trkpt>
<trkpt lat="34.324078" lon="135.268986">
 <ele>75.2</ele>
 <time>2020-03-24T16:55:52Z</time>
</trkpt>
<trkpt lat="34.324163" lon="135.269137">
 <ele>73.1</ele>
 <time>2020-03-24T16:55:52Z</time>
</trkpt>
<trkpt lat="34.324241" lon="135.269265">
 <ele>69.7</ele>
 <time>2020-03-24T16:55:52Z</time>
</trkpt>
<trkpt lat="34.324344" lon="135.269437">
 <ele>75.4</ele>
 <time>2020-03-24T16:55:52Z</time>
</trkpt>
<trkpt lat="34.324421" lon="135.269437">
 <ele>75.7</ele>
 <time>2020-03-24T16:55:52Z</time>
</trkpt>
<trkpt lat="34.324507" lon="135.269426">
 <ele>75.8</ele>
 <time>2020-03-24T16:55:52Z</time>
</trkpt>
<trkpt lat="34.324687" lon="135.269405">
 <ele>75.7</ele>
 <time>2020-03-24T16:55:53Z</time>
</trkpt>
<trkpt lat="34.324842" lon="135.269469">
 <ele>76.8</ele>
 <time>2020-03-24T16:55:53Z</time>
</trkpt>
<trkpt lat="34.325030" lon="135.269576">
 <ele>76</ele>
 <time>2020-03-24T16:55:53Z</time>
</trkpt>
<trkpt lat="34.325700" lon="135.270006">
 <ele>76</ele>
 <time>2020-03-24T16:55:53Z</time>
</trkpt>
<trkpt lat="34.325743" lon="135.269920">
 <ele>75</ele>
 <time>2020-03-24T16:55:53Z</time>
</trkpt>
</trkseg>
</trk>
</gpx>

